Orbital Elements at Epoch 2459200.5 (2020-Dec-17.0) TDB
Reference: JPL 24 (heliocentric ecliptic J2000)
Element | Value | Uncertainty (1-sigma) | Units |
e | .1470519781388244 | 4.1198e-08 | |
a | 2.431158369727188 | 1.2851e-08 | au |
q | 2.073651722290045 | 1.005e-07 | au |
i | 6.784988998531245 | 4.8517e-06 | deg |
node | 195.6928159355048 | 3.821e-05 | deg |
peri | 112.8548600483263 | 4.1953e-05 | deg |
M | 22.21828457860576 | 2.0504e-05 | deg |
tp | 2459115.047194265336 (2020-Sep-22.54719427) | 7.8468e-05 | TDB |
period | 1384.580792258866 3.79 | 1.0978e-05 3.006e-08 | d yr |
n | .2600064958381231 | 2.0615e-09 | deg/d |
Q | 2.78866501716433 | 1.474e-08 | au |
|
| | Orbit Determination Parameters
Additional Information
|